sat.trackr.live / text

‹ back to catalog

SAUDICOMSAT 5

NORAD 31124 · 2007-012H

PAYLOAD ACTIVE UNKNOWN

§ Identity

Operator
Country
SAUD
Launch date
2007-04-17
Launch site
TYMSC
Launch vehicle
Mass (kg)
RCS (m²)
0.05

External: N2YO · Heavens-Above · Gunter

§ Orbital elements

Epoch: 2026-09-10T04:57:23.594112Z

Period
98.08 min
Inclination
98.3595°
Eccentricity
0.0046420
Mean motion
14.68251638 rev/d
Perigee alt
634.0 km
Apogee alt
699.4 km
Semi-major
7,044.8 km
B*
7.2002e-5
RAAN
229.8570°
Arg perigee
216.9398°
Mean anomaly
142.8607°
Rev number
3,607

§ Raw data

SAUDICOMSAT 51 31124U 07012H   26253.20652308  .00000367  00000+0  72002-4 0  99952 31124  98.3595 229.8570 0046420 216.9398 142.8607 14.68251638 36077

JSON: /api/v1/satellites/31124 · /tle

For live sub-satellite position, see the globe view (requires WebGL).

§ Visibility from observer

Set your observer location to see the next 7 days of passes ≥ 10°. The values pass through the URL so the page stays shareable.

No JS? Fill the form by hand. The geolocation button needs JavaScript.